Nos coordonnées

Nous sommes à votre écoute du lundi au dimanche de 10:00 à 19:00 au :

+32 (0)495 19 89 53

 

Adresse d'exploitation Adresse de facturation
Chaussée de Nivelles, 629
6230 Buzet
Belgique
Kouter 107/2
9000 Gent
Belgique

contact @ blackhelicopters.be (n'oubliez pas de supprimer les espaces)


Nous retrouver

Il est très fortement conseillé de nous appeler avant de venir sur le terrain, nous pouvons être en mission ou en vol!

 

La carte ci-dessous est interactive, cherchez vos itinéraires, déplacez la pour vous retrouver.

News

Votre panier

Le panier est vide

Météo Charleroi

METAR
EBCI 280420Z 24007KT 4000 BR NSC 02/01 Q1033 NOSIG =
EBCI 272310Z 2800/2906 29006KT 8000 SCT020 BECMG 2802/2804 4000 BR BKN006 PROB40 2805/2809 0600 FG OVC002 TEMPO 2812/2818 8000 NSW SCT010 BECMG 2819/2821 23010KT TEMPO 2823/2906 2000 DZ OVC003
TAF
EBCI 272310Z 2800/2906 29006KT 8000 SCT020 BECMG 2802/2804 4000 BR BKN006 PROB40 2805/2809 0600 FG OVC002 TEMPO 2812/2818 8000 NSW SCT010 BECMG 2819/2821 23010KT TEMPO 2823/2906 2000 DZ OVC003 =
Lever / Coucher : 07:22 / 16:29 UTC (Buzet 2022-01-28)